FW6626 Weather Reports


time (UTC)temp
F
wind
direction
speed
knots
gust
knots
rain 1hr
in
rain 24hr
in
rain mn
in
humidity
%
barometer
mb
20260901104603 68 5 0.9 2.6 0.00 0.00 0.00 84 1014.8
20260901103057 68 27 0.0 2.6 0.00 0.00 0.00 84 1014.8
20260901101600 68 0 0.0 1.7 0.00 0.00 0.00 86 1015.0
20260901094600 68 30 0.0 1.7 0.00 0.00 0.00 86 1015.0
20260901093101 68 0 0.0 2.6 0.00 0.00 0.00 86 1015.0
20260901091604 68 32 0.9 2.6 0.00 0.00 0.00 86 1014.6
20260901090114 68 33 0.0 2.6 0.00 0.00 0.00 86 1014.8
20260901084557 68 36 0.9 2.6 0.00 0.00 0.00 86 1014.7
20260901083058 68 113 0.0 2.6 0.00 0.00 0.00 86 1015.0
20260901081605 68 0 0.0 0.0 0.00 0.00 0.00 86 1014.9
20260901080114 68 0 0.0 0.0 0.00 0.00 0.00 85 1014.9
20260901074559 68 0 0.0 0.0 0.00 0.00 0.00 85 1014.9
20260901073059 68 0 0.0 0.9 0.00 0.00 0.00 85 1015.0
20260901071605 68 155 0.0 1.7 0.00 0.00 0.00 85 1015.0
20260901070105 68 155 0.9 2.6 0.00 0.00 0.00 85 1015.0
20260901064620 68 155 0.9 2.6 0.00 0.00 0.00 85 1015.0
20260901063119 68 156 1.7 2.6 0.00 0.00 0.00 85 1014.8
20260901061604 68 157 0.9 2.6 0.00 0.00 0.00 85 1014.8
20260901060104 68 157 0.9 2.6 0.00 0.00 0.00 85 1014.8
20260901054555 68 0 0.0 0.0 0.00 0.00 0.00 86 1014.8
20260901053102 68 0 0.0 0.0 0.00 0.00 0.00 86 1014.7
20260901051600 68 0 0.0 0.0 0.00 0.00 0.00 85 1014.6
20260901050058 68 0 0.0 1.7 0.00 0.00 0.00 85 1014.6
20260901044558 68 0 0.0 1.7 0.00 0.00 0.00 85 1014.6
20260901043103 68 157 0.0 4.3 0.00 0.00 0.00 85 1014.5
20260901041557 68 158 0.9 4.3 0.00 0.00 0.00 85 1014.4
20260901040104 68 161 1.7 3.5 0.00 0.00 0.00 84 1014.4
20260901034559 69 190 1.7 3.5 0.00 0.00 0.00 84 1014.3
20260901033056 69 232 0.9 2.6 0.00 0.00 0.00 84 1014.1
20260901031602 69 0 0.0 0.0 0.00 0.00 0.00 83 1013.7
20260901030101 69 0 0.0 2.6 0.00 0.00 0.00 82 1013.7
20260901024602 70 238 0.0 3.5 0.00 0.00 0.00 81 1013.4
20260901023103 70 243 0.0 6.1 0.00 0.00 0.00 80 1013.3
20260901021602 71 250 0.9 5.2 0.00 0.00 0.00 79 1013.2
20260901020059 72 253 1.7 5.2 0.00 0.00 0.00 79 1013.0
20260901014555 72 268 2.6 7.0 0.00 0.00 0.00 78 1012.8
20260901013109 73 360 1.7 7.8 0.00 0.00 0.00 77 1013.0
20260901011556 74 255 2.6 7.8 0.00 0.00 0.00 75 1013.0
20260901010106 75 258 2.6 7.8 0.00 0.00 0.00 71 1013.1
20260901004611 75 360 5.2 9.6 0.00 0.00 0.00 72 1013.3
20260901003108 76 240 3.5 8.7 0.00 0.00 0.00 72 1013.4
20260901001609 75 252 5.2 10.4 0.00 0.00 0.00 73 1013.4
20260901000057 76 283 4.3 9.6 0.00 0.00 0.00 74 1013.4
20260831234602 76 245 4.3 10.4 0.00 0.00 0.00 73 1013.6
20260831233058 77 219 3.5 10.4 0.00 0.00 0.00 72 1013.5
20260831231615 76 252 5.2 10.4 0.00 0.00 0.00 73 1013.4
20260831230113 77 292 5.2 11.3 0.00 0.00 0.00 73 1013.6
20260831224605 76 360 6.1 11.3 0.00 0.00 0.00 73 1013.7
20260831223110 77 258 5.2 10.4 0.00 0.00 0.00 72 1013.8
20260831221605 77 242 6.1 12.2 0.00 0.00 0.00 72 1014.1
20260831220100 77 281 5.2 12.2 0.00 0.00 0.00 71 1014.2
20260831214603 77 291 5.2 13.0 0.00 0.00 0.00 72 1014.0
20260831213101 77 360 6.1 11.3 0.00 0.00 0.00 71 1014.0
20260831211616 78 227 5.2 12.2 0.00 0.00 0.00 70 1014.2
20260831210110 78 360 6.1 10.4 0.00 0.00 0.00 70 1014.2
20260831204606 78 228 4.3 9.6 0.00 0.00 0.00 71 1014.5
20260831203102 78 291 5.2 9.6 0.00 0.00 0.00 70 1014.4
20260831201611 78 207 3.5 8.7 0.00 0.00 0.00 70 1014.5
20260831200107 78 204 3.5 9.6 0.00 0.00 0.00 70 1014.5
20260831194642 78 237 5.2 9.6 0.00 0.00 0.00 70 1014.5
20260831193100 78 242 4.3 9.6 0.00 0.00 0.00 71 1014.6
20260831191608 79 186 3.5 9.6 0.00 0.00 0.00 69 1014.7
20260831190108 79 198 3.5 9.6 0.00 0.00 0.00 69 1014.8
20260831184601 78 185 2.6 9.6 0.00 0.00 0.00 70 1014.9
20260831183104 79 241 4.3 10.4 0.00 0.00 0.00 70 1014.8
20260831181555 78 360 4.3 8.7 0.00 0.00 0.00 71 1015.0
20260831180107 77 277 3.5 8.7 0.00 0.00 0.00 71 1014.8
20260831174601 77 225 3.5 7.8 0.00 0.00 0.00 71 1014.6
20260831173057 77 360 4.3 8.7 0.00 0.00 0.00 71 1014.5
20260831171600 79 180 3.5 8.7 0.00 0.00 0.00 67 1014.4
20260831170105 78 360 2.6 7.8 0.00 0.00 0.00 69 1014.5
20260831164601 79 178 0.9 5.2 0.00 0.00 0.00 68 1014.5
20260831163058 79 188 0.9 7.0 0.00 0.00 0.00 67 1014.4
20260831161553 79 121 3.5 7.0 0.00 0.00 0.00 65 1014.4
20260831160059 79 153 1.7 6.1 0.00 0.00 0.00 66 1014.4
20260831154617 76 108 1.7 5.2 0.00 0.00 0.00 73 1014.4
20260831153114 74 150 0.0 1.7 0.00 0.00 0.00 75 1014.3
20260831151605 73 150 0.0 1.7 0.00 0.00 0.00 76 1014.3
20260831150059 72 0 0.0 1.7 0.00 0.00 0.00 78 1014.2
20260831144630 71 0 0.0 0.9 0.00 0.00 0.00 79 1014.1
20260831143104 70 0 0.0 1.7 0.00 0.00 0.00 80 1014.1
20260831141557 70 150 0.0 1.7 0.00 0.00 0.00 81 1013.8
20260831140055 70 0 0.0 0.0 0.00 0.00 0.00 81 1013.7
20260831134600 70 0 0.0 0.9 0.00 0.00 0.00 81 1013.4
20260831133102 70 0 0.0 0.9 0.00 0.00 0.00 81 1013.2
20260831131603 70 0 0.0 0.9 0.00 0.00 0.00 81 1013.1
20260831130109 70 150 0.9 1.7 0.00 0.00 0.00 81 1013.2
20260831124603 70 150 0.9 2.6 0.00 0.00 0.00 81 1013.0
20260831123058 70 149 0.9 5.2 0.00 0.00 0.00 81 1013.1
20260831121603 70 148 1.7 4.3 0.00 0.00 0.00 82 1013.0
20260831120100 70 0 0.9 2.6 0.00 0.00 0.00 82 1013.1
20260831114600 70 150 0.0 1.7 0.00 0.00 0.00 82 1013.0
20260831113110 70 150 0.0 5.2 0.00 0.00 0.00 83 1013.0
20260831111604 69 84 1.7 4.3 0.00 0.00 0.00 85 1013.1